Overview Statistics Trail Chart Weather Telemetry Raw packets
 

This is the latest recevied weather packets stored in our database for station/object K7FLA. If no packets are shown the sender has not sent any weather packets the latest 10 day(s).

<< 74 75 76 77 78 79 80 >>
Time Temp. Humidity Pressure Rain* Wind** Luminosity Snow
1788137167 31.11° C 33% 1093.4 hPa 0 mm - 108 W/m² -
1788136863 31.11° C 33% 1093.3 hPa 0 mm - 118 W/m² -
1788136559 31.67° C 33% 1093.2 hPa 0 mm - 127 W/m² -
1788136255 31.67° C 32% 1093.2 hPa 0 mm - 133 W/m² -
1788135953 31.67° C 32% 1093.3 hPa 0 mm - 148 W/m² -
1788135648 31.67° C 32% 1093.2 hPa 0 mm - 155 W/m² -
1788135344 31.67° C 32% 1093.3 hPa 0 mm - 175 W/m² -
1788135040 32.22° C 31% 1093.3 hPa 0 mm - 189 W/m² -
1788134737 32.22° C 31% 1093.1 hPa 0 mm - 201 W/m² -
1788134436 32.78° C 31% 1093 hPa 0 mm - 213 W/m² -
1788134135 32.78° C 30% 1093.2 hPa 0 mm - 230 W/m² -
1788133831 32.78° C 30% 1093.2 hPa 0 mm - 245 W/m² -
1788133531 33.33° C 30% 1093 hPa 0 mm - 263 W/m² -
1788133226 33.33° C 30% 1093.1 hPa 0 mm - 280 W/m² -
1788132921 33.33° C 29% 1093.2 hPa 0 mm - 286 W/m² -
1788132618 33.33° C 29% 1093.1 hPa 0 mm - 306 W/m² -
1788132313 33.33° C 29% 1092.8 hPa 0 mm - 325 W/m² -
1788132009 33.89° C 30% 1092.8 hPa 0 mm - 339 W/m² -
1788131705 33.89° C 30% 1093 hPa 0 mm - 344 W/m² -
1788131404 33.89° C 29% 1093 hPa 0 mm - 366 W/m² -
1788131099 34.44° C 29% 1093 hPa 0 mm - 381 W/m² -
1788130798 34.44° C 28% 1092.8 hPa 0 mm - 392 W/m² -
1788130494 34.44° C 28% 1093.1 hPa 0 mm - 390 W/m² -
1788130194 34.44° C 28% 1093.1 hPa 0 mm - 432 W/m² -
1788129892 35° C 28% 1093.1 hPa 0 mm - 452 W/m² -

* Rain latest hour (hover to see other rain measurements)
** Current wind speed in m/s (hover to see current wind gust speed)